User: anonymous   Login
Location: Unspecified
(0.0000°N, 0.0000°E)
Time: 17:41:25
(UTC+00:00)
Language:

GSAT 15 - Orbit

View from above orbital plane
View from above orbital plane
View from above satellite
View from above satellite

Ground track
Ground track

The orbit data is extracted from the following two-line orbital elements,

1 41028U 15065A   18343.52304492 -.00000254 +00000-0 +00000-0 0  9992
2 41028 000.0190 281.9008 0002334 309.7770 128.3126 01.00271621011308
Epoch (UTC): 09 December 2018 12:33:11
Eccentricity: 0.0002334
inclination: 0.0190°
perigee height: 35776 km
apogee height: 35796 km
right ascension of ascending node: 281.9008°
argument of perigee: 309.7770°
revolutions per day: 1.00271621
mean anomaly at epoch: 128.3126°
orbit number at epoch: 1130

The dashed part of the orbit path shows where the satellite is in the earth's shadow,  

DLR